RH
73 73 71 69 69 68 65 62 62 66 68 67 65 65 65 65 64 65 64 63 66 66 66 66 65 64 63 62 62 62 63 63 63 66 69 71 72 72 74 75 76 75 74 74 73 73 74 74 73 73 76 78 77 73 71 70 71 71 71 71 70 71 71 70 78 81 68 60 64 64 64 67 64 61 61 60 59 59 58 57 58 59 60 61 63
77 76 75 73 71 70 69 66 64 66 69 68 66 65 64 65 64 64 64 64 64 63 63 63 61 61 61 60 61 60 60 60 61 65 68 70 70 69 71 74 75 76 76 75 74 74 75 75 74 76 78 79 77 73 71 71 72 73 72 73 73 72 72 72 76 80 73 64 62 64 66 69 68 64 63 62 61 61 59 57 56 58 61 62 62
76 77 79 78 75 73 73 72 68 68 70 69 68 66 64 65 65 65 65 65 64 63 62 61 60 60 59 59 59 58 60 60 61 63 66 68 70 69 70 72 74 76 76 75 74 74 77 77 77 78 79 78 76 73 71 71 71 70 69 71 73 72 72 74 75 77 75 69 65 64 67 71 72 69 67 66 65 65 64 62 61 60 61 61 60
73 76 79 79 78 77 76 75 73 71 71 71 69 68 66 65 65 66 66 65 65 64 62 61 61 60 60 60 60 58 59 61 64 65 65 66 69 69 69 69 71 73 74 76 75 73 74 75 74 75 79 78 75 71 70 70 69 67 65 67 68 67 68 71 73 74 76 74 68 63 65 72 76 76 73 70 67 67 68 67 66 64 64 63 60
74 76 78 78 79 79 77 77 77 74 72 71 71 70 68 67 66 65 65 64 63 62 61 62 62 62 62 62 62 61 59 62 68 69 68 67 67 66 66 66 67 71 74 76 74 70 71 73 71 71 76 77 74 71 69 68 69 69 68 67 66 66 66 68 71 75 78 77 71 67 68 73 79 81 77 73 70 68 68 67 66 66 65 63 60
75 77 79 80 79 78 78 77 77 76 74 72 71 71 69 68 66 64 62 62 61 60 61 63 63 62 60 59 60 60 59 63 69 70 68 68 68 67 66 67 68 71 74 73 69 66 69 73 72 71 72 73 72 70 68 66 68 70 70 69 69 69 68 68 71 76 80 78 74 74 74 76 82 83 77 74 72 69 67 64 62 63 63 63 61
75 77 79 81 81 79 78 76 75 76 75 74 72 71 70 68 66 63 62 61 61 60 62 62 61 59 58 58 59 59 59 63 67 67 65 66 68 68 66 66 66 68 69 68 65 65 67 71 73 72 71 70 69 68 68 67 68 68 69 70 72 72 71 71 73 78 83 83 82 81 80 82 85 83 78 76 74 71 69 68 64 61 61 63 63
75 76 77 80 81 80 77 76 75 74 73 73 72 70 70 70 68 66 65 63 61 60 62 61 59 59 58 59 59 59 61 64 65 65 65 65 67 68 67 66 66 67 67 67 66 67 69 71 73 72 71 70 69 69 69 69 69 68 69 72 74 75 75 76 79 81 82 85 85 84 84 86 84 80 78 77 76 74 75 78 77 71 68 68 67
75 76 77 79 80 80 78 76 75 74 73 72 71 71 71 71 70 68 66 63 60 59 59 59 59 59 59 59 59 59 61 64 65 65 65 65 66 67 67 67 69 70 69 68 69 70 70 71 72 71 71 70 70 68 67 69 72 72 72 75 77 77 79 83 88 88 87 89 88 87 89 90 85 81 81 80 81 82 83 87 87 81 77 75 71
77 78 78 77 78 78 78 77 75 73 72 71 70 70 71 71 69 67 64 61 60 58 58 59 60 59 58 59 60 59 61 63 65 65 65 66 67 68 68 68 70 71 70 70 71 71 71 73 72 70 70 70 71 73 73 73 74 74 76 79 82 84 86 89 91 89 88 91 91 91 95 94 87 86 87 86 85 87 87 90 90 84 82 82 77
79 81 81 81 81 78 76 76 75 72 70 70 69 68 70 71 69 65 62 61 62 60 57 57 58 58 59 60 60 60 60 62 64 67 68 68 69 69 68 68 69 71 72 73 73 72 73 73 73 73 72 72 76 81 85 87 86 83 83 87 92 95 95 95 92 88 88 92 93 94 98 97 91 90 92 91 90 90 90 91 91 86 83 87 86
84 87 87 85 84 82 79 74 71 71 71 69 66 65 68 69 68 67 64 62 64 63 60 58 58 60 62 62 62 62 62 64 67 69 68 67 67 68 68 68 69 72 75 76 75 74 75 78 81 85 87 86 88 89 88 91 95 94 94 95 97 99 100 98 96 94 94 95 96 97 99 99 97 95 96 96 96 95 94 94 93 89 86 89 90
90 90 88 81 79 86 90 84 77 77 80 79 75 72 69 69 73 78 75 69 66 64 62 61 61 62 64 63 62 63 64 66 68 68 66 65 67 70 70 70 71 73 74 75 78 81 85 88 91 92 90 89 92 91 85 85 91 96 98 99 98 99 100 97 95 96 97 99 100 99 99 100 100 99 98 100 100 99 99 97 96 95 92 90 88
94 93 88 81 76 82 91 92 89 88 86 84 81 80 82 84 84 82 78 75 75 73 71 68 66 64 63 62 62 64 67 69 69 67 66 65 67 71 73 74 77 79 80 83 89 92 92 91 91 89 86 85 86 87 85 87 93 97 98 98 98 99 99 98 97 98 99 100 100 100 100 100 100 100 99 100 100 99 99 98 98 99 98 96 92
98 95 90 86 81 82 89 96 98 94 86 77 75 81 93 99 94 88 85 84 86 85 83 79 75 70 66 65 66 70 73 73 71 70 69 68 70 73 76 79 82 85 91 95 95 94 93 92 89 87 87 89 89 88 89 93 98 99 98 98 98 98 98 97 98 99 99 100 100 100 100 99 98 99 98 97 96 94 94 97 99 100 100 99 97
100 99 96 94 91 91 95 98 97 96 91 83 81 89 99 100 96 96 96 92 91 93 93 89 85 79 74 73 76 80 80 77 75 75 74 73 74 75 78 80 79 84 95 100 95 92 94 93 89 87 91 95 95 94 95 98 100 99 98 98 97 96 95 96 98 99 99 100 100 99 99 97 96 96 94 94 94 92 93 97 100 100 100 100 100
98 97 98 99 98 97 99 100 98 99 99 96 95 99 101 99 97 99 100 97 96 97 98 96 93 91 89 87 88 89 87 83 81 79 78 79 81 80 80 80 79 85 97 100 97 95 95 93 93 96 98 99 99 99 99 100 100 99 98 99 97 95 96 98 100 100 99 98 98 98 97 96 95 93 91 92 93 94 97 98 99 100 100 100 100
96 95 97 99 99 100 100 100 99 100 100 99 99 99 98 98 98 98 99 99 98 98 99 99 98 98 98 97 96 93 90 87 85 83 82 84 85 84 84 84 86 93 99 100 99 99 97 97 98 100 100 100 100 100 99 99 100 99 98 99 99 98 98 98 97 96 96 95 94 94 93 92 92 91 89 89 92 96 99 100 99 100 100 100 100
99 98 100 100 100 101 100 99 100 100 100 100 99 98 97 96 95 94 95 96 97 98 100 100 99 100 100 100 99 96 93 91 88 86 86 85 85 88 92 94 96 99 99 98 99 100 99 99 100 100 100 99 97 96 95 94 95 95 95 96 96 96 94 92 91 92 92 91 90 89 88 87 88 89 89 90 93 97 100 100 100 100 100 100 100
100 100 100 100 99 99 97 96 95 95 95 95 94 94 94 94 94 94 96 98 100 100 100 100 100 100 100 100 100 97 95 94 92 91 89 86 88 94 98 99 100 100 99 98 99 100 100 100 99 97 94 92 89 88 87 87 88 89 90 90 91 91 89 88 90 92 92 91 90 90 89 89 90 92 93 95 97 98 99 100 100 100 100 100 100
100 100 100 99 98 97 95 94 93 93 93 93 91 92 93 94 96 98 98 99 100 99 100 100 100 100 99 99 98 97 97 96 95 94 93 91 94 98 98 99 100 100 100 100 100 99 97 95 93 90 86 85 86 88 88 87 86 85 85 86 87 88 88 89 91 94 94 95 96 97 96 95 96 98 99 99 99 100 100 100 100 100 100 100 100
99 100 100 100 99 99 97 95 94 94 94 92 91 93 94 96 98 100 100 101 100 100 100 99 98 97 96 95 95 96 97 97 95 96 96 95 97 98 97 98 100 100 99 98 96 94 93 91 90 88 85 85 86 88 88 88 86 86 87 88 88 89 91 93 95 97 98 99 100 100 99 99 100 100 100 100 100 100 100 100 100 100 100 100 100
94 95 95 96 98 98 96 94 92 92 92 91 90 93 94 94 95 95 94 94 94 94 95 94 93 93 93 93 94 95 96 96 95 95 95 95 96 97 98 100 101 99 95 92 91 91 90 90 90 87 84 84 87 87 86 85 86 88 89 89 90 90 91 92 94 96 96 96 97 99 100 99 100 99 100 100 99 97 98 99 100 100 100 99 98
87 87 87 88 90 91 91 90 89 88 88 88 88 89 89 88 88 89 90 91 91 91 90 88 87 87 88 89 91 92 93 93 93 92 93 94 94 94 96 96 93 90 89 90 91 91 90 90 88 86 85 87 89 89 86 84 84 86 86 86 88 89 89 91 92 92 93 93 94 96 97 97 98 98 99 99 98 96 95 96 97 97 95 92 89
81 80 79 80 81 83 84 85 84 84 82 81 82 82 79 77 76 73 71 71 73 74 74 75 75 75 76 78 82 86 88 88 88 88 90 92 90 88 88 88 86 87 91 93 93 92 92 92 90 87 87 89 89 88 85 83 81 81 81 83 85 86 87 89 90 89 90 92 91 90 90 90 91 93 94 94 94 94 92 91 91 90 88 86 84
76 73 72 71 72 73 75 77 80 82 80 78 77 77 77 80 83 80 72 66 65 65 68 70 70 67 66 65 67 70 71 72 75 79 82 86 88 89 89 90 90 91 93 94 93 92 93 91 87 83 82 83 84 82 79 76 74 74 75 76 78 80 81 82 83 85 87 88 87 86 86 84 83 84 85 85 87 90 91 89 87 86 87 86 83
67 66 65 65 65 66 65 67 72 77 79 80 79 78 77 76 80 86 88 86 82 78 77 77 74 69 67 64 63 64 63 62 63 65 68 75 86 92 94 94 93 91 92 93 93 91 90 88 83 79 77 78 77 74 70 67 66 67 68 71 73 75 76 75 75 77 79 79 78 77 77 77 78 78 78 78 79 83 86 87 87 86 87 86 83
45 46 47 47 48 48 46 48 53 57 61 63 63 61 57 51 52 62 73 77 75 70 70 72 73 74 75 75 74 74 73 69 65 61 60 66 79 89 92 92 91 91 91 92 89 86 84 81 76 72 71 71 70 69 67 66 65 65 65 66 67 68 68 67 67 68 68 67 66 66 66 68 71 74 75 76 77 75 75 77 80 80 79 78 78
32 33 33 32 33 31 29 29 29 29 31 35 37 39 38 36 37 44 52 56 57 58 61 68 73 76 77 78 78 78 78 76 74 71 67 67 74 82 87 89 90 90 90 89 84 79 75 72 68 67 67 68 69 68 67 66 67 67 67 66 65 65 64 63 63 63 63 62 62 62 63 64 66 67 69 72 73 70 65 65 69 71 70 71 74
32 34 34 33 32 30 28 29 29 29 31 35 42 51 56 56 56 57 59 61 61 61 65 71 75 75 76 77 77 77 78 78 77 76 75 73 75 78 81 84 86 88 87 84 79 76 74 72 70 69 69 70 70 67 65 66 66 67 68 67 66 66 65 64 63 62 61 61 61 61 61 61 62 63 62 63 64 63 60 61 65 69 72 74 75
42 42 43 43 41 37 33 33 33 35 38 40 44 52 62 68 72 73 75 76 75 72 72 74 75 75 74 73 73 74 75 74 73 74 75 77 78 79 80 82 84 85 84 79 75 74 74 73 72 70 68 68 67 64 64 65 65 66 66 65 65 65 64 63 63 63 62 61 60 60 60 60 60 61 60 60 60 59 58 59 61 64 69 74 75
56 54 53 53 53 50 46 42 38 38 40 42 42 44 49 58 67 74 78 80 80 77 75 74 74 74 72 71 69 69 70 70 70 72 74 76 79 80 81 81 81 80 78 73 69 68 68 67 67 66 64 63 64 63 63 64 64 64 64 63 63 63 62 61 61 61 61 61 60 59 58 58 58 59 59 59 59 58 59 60 60 59 60 64 68
66 65 63 63 62 60 58 55 51 48 45 43 43 42 42 46 55 64 73 80 81 78 75 74 73 72 71 68 65 63 64 64 65 66 68 69 71 73 73 73 72 70 68 64 62 63 63 62 63 63 62 63 65 64 63 62 62 62 62 62 62 62 61 60 59 59 58 58 57 57 57 57 57 57 58 59 58 57 58 61 62 59 57 58 61
68 66 65 64 65 66 67 65 63 61 58 54 50 46 42 41 45 51 60 70 76 78 77 74 72 70 70 69 66 63 61 60 60 60 61 62 63 64 65 64 62 61 60 58 59 61 62 62 64 64 64 65 64 62 61 61 61 61 62 62 62 61 60 59 58 57 57 56 56 57 57 57 57 57 57 57 58 57 57 61 66 64 59 58 60
64 62 60 60 59 60 59 59 60 62 64 64 61 56 49 44 43 45 50 56 65 73 76 76 72 68 66 67 67 65 63 61 60 59 58 59 59 59 59 60 60 60 60 60 62 63 64 65 66 66 64 63 62 61 60 60 60 60 60 60 60 60 60 59 59 59 58 58 57 58 58 57 57 58 58 57 58 59 58 62 70 71 63 58 59
58 57 56 55 54 51 50 51 54 55 57 60 63 63 61 56 49 45 44 45 51 59 67 71 71 68 65 65 67 67 65 62 61 60 59 59 57 54 55 59 61 61 62 62 62 61 62 63 65 66 65 64 62 61 61 60 59 59 59 59 60 60 60 60 61 60 59 59 59 59 59 58 58 58 58 58 58 60 59 59 64 68 64 60 59
52 51 51 50 49 48 49 53 55 53 51 51 52 56 63 66 61 53 46 43 43 45 51 60 65 66 64 63 64 66 65 63 60 59 58 58 55 52 54 58 59 59 60 60 59 59 59 59 60 61 61 61 61 61 61 60 59 59 59 59 60 60 60 60 60 60 60 60 60 59 58 59 58 58 58 58 59 60 60 58 59 60 60 59 57
45 46 47 49 48 47 49 53 54 52 52 52 52 55 62 69 70 64 55 50 45 40 39 46 54 60 63 63 63 64 65 65 64 62 60 57 55 54 56 57 58 59 60 59 59 59 58 57 57 56 56 57 58 59 59 59 59 59 59 59 58 58 58 58 57 58 58 58 60 60 59 59 59 58 58 60 62 62 61 59 58 58 58 57 56
45 46 46 48 49 49 50 51 50 49 50 50 50 52 57 64 69 68 64 59 54 47 41 40 43 50 56 60 61 62 63 64 64 63 61 59 58 58 58 58 58 59 60 60 58 57 55 56 56 56 56 56 57 57 57 57 58 57 56 56 56 56 57 57 57 57 57 58 60 62 62 61 61 61 60 62 64 63 61 60 59 59 59 58 59
47 50 50 50 49 48 48 47 47 45 45 45 44 43 45 49 53 58 62 63 61 57 51 44 42 47 52 56 58 62 65 66 64 62 61 60 60 60 59 58 59 59 59 58 56 54 53 55 55 55 55 55 55 56 56 55 55 55 55 56 56 57 58 58 57 57 59 61 64 65 64 62 61 61 62 63 63 63 62 61 60 61 62 62 63
46 50 50 49 48 47 45 44 44 44 43 44 44 43 43 44 43 46 51 56 61 63 61 54 49 49 52 55 58 60 60 60 61 62 62 61 60 61 60 59 59 59 57 55 53 52 52 53 53 53 54 54 54 55 55 55 56 57 57 58 59 58 57 55 54 56 61 65 67 67 66 64 63 61 61 62 63 64 64 63 63 63 64 65 65
47 50 50 47 46 46 45 45 45 44 44 45 46 47 48 49 49 50 53 57 64 70 72 70 66 60 56 58 60 59 55 54 57 62 64 62 60 61 61 60 59 58 55 54 53 52 51 53 53 53 54 55 56 57 57 58 59 59 59 59 59 58 54 50 52 59 66 69 69 69 67 65 64 63 61 61 62 63 63 64 64 64 63 63 64
47 48 48 47 46 46 46 46 46 47 48 49 50 51 51 52 55 59 62 66 70 72 73 74 74 68 63 61 62 61 58 55 57 62 66 64 61 61 62 60 59 57 55 54 54 53 53 54 55 55 56 57 58 59 59 60 59 59 59 59 57 56 52 48 52 64 71 70 69 69 68 65 65 64 62 62 63 63 63 64 65 64 63 62 61
47 47 46 46 47 47 47 48 50 52 54 55 55 55 55 54 56 58 61 65 68 70 69 69 69 67 65 64 63 63 62 59 59 63 66 65 62 62 62 60 59 57 57 56 56 55 54 55 56 57 58 59 61 61 61 61 61 60 60 59 57 56 53 51 57 69 74 70 68 69 67 66 66 65 64 64 64 63 63 63 63 62 61 60 60
45 46 45 46 48 48 50 52 54 55 57 58 60 62 62 61 62 64 65 67 69 69 69 69 68 67 67 66 66 65 64 62 63 67 69 67 65 63 61 60 59 58 58 58 57 56 55 56 58 59 59 60 62 62 62 63 63 62 61 59 56 56 59 63 69 74 74 70 68 69 67 66 67 65 64 64 63 61 61 62 61 60 59 58 58
45 46 46 46 49 51 53 55 56 57 58 59 61 64 65 65 66 68 69 70 70 70 69 69 68 67 67 68 68 67 66 66 69 72 72 69 66 63 61 61 60 59 59 59 57 56 57 58 59 59 60 61 63 64 64 64 63 62 60 58 54 56 63 72 76 75 72 70 69 67 65 65 65 64 63 63 61 60 60 60 60 59 58 57 57
45 46 47 48 51 54 57 58 58 59 61 62 64 65 67 67 67 68 68 68 69 69 69 68 68 67 68 70 71 72 71 71 72 73 71 68 65 63 62 62 61 60 59 58 57 58 60 61 60 61 62 64 64 65 64 64 63 62 60 57 53 54 62 72 77 74 70 69 67 65 64 65 64 63 63 63 61 59 59 58 58 57 56 56 56
46 48 49 50 53 55 58 59 61 62 64 65 66 67 68 68 68 68 69 69 70 71 72 72 72 71 72 74 77 77 76 75 74 73 71 67 66 65 66 66 63 61 59 59 61 64 66 65 63 63 64 65 65 65 65 64 63 61 59 56 54 54 60 70 76 74 69 67 67 66 66 65 63 61 61 61 60 59 58 57 56 56 55 56 58
47 49 51 52 54 56 58 59 62 63 63 64 65 67 68 70 71 72 72 72 73 76 77 77 76 76 77 78 79 79 77 75 74 75 74 73 72 71 70 67 64 61 61 63 66 68 69 67 66 65 66 67 66 66 65 64 63 62 60 57 55 56 64 72 75 72 68 68 67 66 64 62 61 60 59 58 57 57 58 58 59 58 58 60 64
48 49 52 54 56 58 59 59 59 59 59 60 61 62 62 62 65 68 72 73 74 75 77 77 77 78 78 78 79 78 76 74 73 73 74 75 74 72 69 67 66 67 69 69 68 68 68 68 67 67 68 68 67 66 65 65 64 64 62 57 54 58 69 75 74 70 69 68 66 64 61 59 58 59 58 55 55 58 61 62 62 62 63 66 68
49 51 53 54 55 57 57 55 54 53 52 51 50 48 46 46 51 58 64 68 70 73 76 77 76 76 75 75 74 74 73 73 73 73 72 73 72 71 70 70 70 71 70 68 67 67 68 68 68 68 67 66 65 66 67 66 65 65 63 59 58 64 73 76 73 71 69 67 65 63 60 58 58 60 60 59 59 60 62 63 63 65 68 70 71
Wind_Speed
32 32 32 32 30 29 30 30 29 25 23 22 23 23 22 22 21 20 20 20 21 22 22 21 21 22 22 23 23 23 23 21 20 20 20 19 18 17 16 15 16 16 16 15 15 14 15 16 16 15 15 14 13 12 13 15 15 15 15 15 15 13 12 11 9 9 15 16 13 12 10 8 7 6 4 3 4 6 8 9 9 9 8 8 8
29 29 30 30 31 30 29 30 30 28 25 23 24 25 24 23 22 22 22 21 21 21 22 22 21 22 23 23 23 24 23 22 20 20 21 20 19 18 18 17 17 17 17 17 16 16 17 17 17 16 16 15 14 14 15 15 14 14 14 15 16 15 14 14 11 9 13 16 15 13 11 9 9 7 6 4 4 6 7 8 9 9 9 9 9
30 28 28 28 29 29 27 27 29 29 27 26 26 26 25 25 23 23 23 23 22 22 22 22 21 22 23 24 24 23 23 23 22 22 22 22 21 20 20 20 19 19 19 19 18 18 19 19 18 17 17 16 17 16 16 16 14 13 14 14 15 15 15 15 14 12 12 15 15 13 11 10 10 8 8 9 9 9 9 8 8 9 10 10 11
32 30 29 29 28 28 27 26 27 28 28 28 27 27 27 26 25 24 24 24 24 24 24 23 22 21 21 22 23 22 23 24 24 23 23 23 23 22 22 22 22 22 22 21 20 21 21 20 19 18 18 19 19 18 16 16 16 15 15 14 14 15 16 15 16 15 14 13 14 14 11 10 11 10 10 11 11 11 11 10 10 11 11 11 11
31 30 30 30 29 28 28 27 26 27 28 29 28 28 27 27 27 27 27 27 27 27 26 24 22 21 21 21 21 20 21 21 22 22 23 24 24 23 23 23 24 24 24 23 22 22 22 21 19 18 18 18 18 17 16 17 17 17 17 16 15 16 16 15 15 16 16 16 17 17 15 13 13 12 11 11 11 11 12 12 12 13 13 12 12
31 29 29 29 30 30 30 29 28 28 28 29 29 29 28 28 28 28 28 28 28 28 27 25 24 24 24 24 23 21 20 20 21 22 24 24 24 23 22 22 23 24 25 24 22 22 22 21 20 18 17 17 16 16 16 16 16 16 16 17 17 16 15 15 15 15 16 18 18 18 18 17 15 14 12 10 10 11 12 12 12 13 13 13 13
32 30 29 28 28 30 31 31 31 30 29 29 29 29 29 29 29 29 28 28 27 28 27 27 27 26 26 26 25 23 22 21 23 25 25 24 24 23 22 21 22 23 24 23 22 22 21 21 21 21 20 19 18 18 18 18 17 17 17 16 15 15 15 14 15 15 16 17 17 17 17 16 15 13 12 11 11 11 11 11 12 12 11 12 13
32 31 29 27 27 30 32 32 32 31 30 29 29 30 31 31 30 29 28 27 28 27 27 28 28 28 27 25 24 25 24 23 25 27 27 25 25 25 25 23 22 22 22 22 21 21 20 19 19 20 20 20 20 19 19 18 19 18 17 15 14 14 15 14 14 15 16 16 16 16 15 15 14 13 13 12 11 10 9 9 12 12 11 11 12
33 31 29 28 28 30 31 31 31 31 30 29 30 31 31 30 29 28 28 28 27 26 27 28 28 28 28 26 24 24 24 24 26 27 27 26 26 27 27 25 23 22 23 22 21 21 20 19 19 19 20 19 19 18 17 16 15 15 15 13 12 14 15 14 14 15 15 15 16 16 14 14 14 14 13 12 11 11 11 11 13 13 13 13 13
32 31 30 30 30 29 28 27 28 29 30 30 31 32 31 30 28 26 24 21 19 19 21 24 27 27 26 26 25 24 24 24 26 27 27 26 25 26 26 24 23 23 23 23 22 22 21 21 20 19 18 18 17 16 15 14 13 13 13 11 11 13 15 14 14 15 14 14 15 15 13 13 15 13 13 13 12 12 13 12 13 14 14 13 13
32 29 27 26 27 29 28 25 24 25 27 27 28 29 29 29 28 26 22 18 14 13 15 18 20 22 22 23 24 24 24 24 24 25 25 25 24 24 23 23 23 23 23 23 23 22 22 22 21 18 16 15 14 13 13 13 13 13 13 12 12 13 13 13 14 14 13 13 15 14 12 14 16 14 14 14 13 13 12 12 13 13 12 10 10
27 23 21 19 20 23 25 27 26 24 22 22 23 24 25 27 29 28 26 22 18 15 16 17 18 19 20 21 23 23 23 24 24 24 25 24 24 23 22 22 23 24 24 23 23 22 22 21 19 15 13 12 13 12 12 12 14 14 13 13 14 13 11 12 14 15 14 14 15 15 14 14 15 15 13 13 12 11 12 13 14 13 12 10 10
22 21 21 22 22 20 20 24 25 22 18 17 17 17 19 21 22 21 21 21 19 16 16 17 17 18 19 21 22 23 24 25 25 25 25 24 23 23 23 23 24 24 25 24 22 20 17 16 15 13 12 10 11 14 14 14 14 13 13 12 12 10 9 9 11 13 14 14 15 15 15 14 14 14 12 11 12 12 14 15 16 15 14 13 14
19 21 22 26 27 23 19 19 18 16 15 15 13 13 14 15 14 14 14 15 15 15 15 16 16 17 18 19 21 23 24 24 24 24 24 24 24 23 23 23 22 23 22 21 18 15 13 14 14 13 11 8 9 13 15 13 12 11 11 11 11 9 8 7 8 10 11 13 13 14 14 13 13 13 13 13 14 15 16 17 17 16 17 17 18
17 20 21 23 25 23 20 17 16 14 15 17 17 16 13 11 11 13 13 14 13 12 13 15 16 17 18 19 21 22 22 23 23 23 23 23 23 23 22 21 20 20 18 17 16 15 15 14 12 9 7 7 8 10 11 10 10 10 10 10 10 9 8 7 8 9 10 11 11 12 12 12 13 15 16 16 16 17 17 16 16 17 18 20 21
14 16 17 17 19 18 15 15 16 13 11 13 16 15 11 10 11 12 12 13 13 12 12 14 14 15 16 18 20 20 21 21 21 21 21 22 23 23 22 20 19 18 16 15 16 15 14 13 10 7 6 6 6 6 6 6 8 10 11 10 10 10 10 9 9 9 9 10 10 11 12 12 13 15 16 16 15 15 15 15 16 17 17 18 20
12 12 11 12 13 14 14 15 15 12 11 11 11 11 9 10 12 11 11 12 12 12 13 13 12 12 14 16 17 17 18 18 19 19 19 20 20 20 19 18 17 16 13 12 13 12 11 10 7 3 2 2 4 6 5 4 5 7 9 10 11 11 9 8 7 6 8 10 12 12 13 13 13 15 16 15 14 13 13 15 17 15 13 13 14
13 11 9 9 10 12 14 15 16 16 16 16 14 11 10 10 10 10 11 11 11 12 12 10 10 11 11 13 14 14 15 16 16 17 17 17 16 16 16 14 12 10 6 3 4 5 5 3 3 3 3 1 2 4 4 4 4 5 5 7 8 9 8 8 8 7 9 13 15 15 16 15 15 16 17 17 14 12 12 14 15 14 12 11 11
16 15 13 12 13 13 13 12 12 13 13 12 11 10 8 7 7 7 8 9 8 9 8 6 7 7 7 9 11 12 13 13 14 15 16 16 15 13 12 11 9 9 7 5 6 9 9 7 5 4 3 3 3 3 4 4 4 4 5 5 6 8 9 11 12 12 11 12 13 14 15 14 13 13 15 15 13 12 12 13 14 14 13 12 11
18 17 16 16 15 14 13 11 10 10 9 8 8 7 5 4 3 3 5 5 6 6 5 5 6 6 5 7 7 8 9 8 10 12 13 14 13 10 9 11 12 10 8 9 11 11 9 8 8 6 5 6 5 5 4 4 4 4 4 4 5 6 7 8 9 9 10 10 10 12 13 13 12 12 12 12 12 10 10 11 13 14 15 15 14
21 20 19 19 17 16 15 13 12 11 10 9 10 9 8 6 5 5 5 5 6 6 7 7 8 8 6 5 5 4 3 2 3 5 7 10 10 7 6 10 12 11 12 14 13 12 12 13 13 11 10 11 10 10 10 9 9 8 8 8 7 6 6 7 7 7 7 8 8 9 10 11 11 11 10 9 9 8 8 9 10 11 11 10 10
23 22 22 21 21 20 20 19 17 16 14 13 14 14 13 11 10 10 10 9 10 11 11 10 10 11 10 8 6 5 5 4 2 2 1 2 5 4 3 6 11 14 16 16 15 17 18 18 17 15 14 14 14 13 13 12 12 12 11 9 8 7 7 7 8 9 10 11 12 13 15 15 15 16 15 13 10 7 6 6 6 7 7 7 7
23 23 24 24 24 23 23 22 21 20 18 17 17 17 16 16 15 14 14 14 15 16 15 13 13 13 13 11 9 8 8 7 6 7 8 7 5 5 6 8 11 14 18 21 21 22 22 21 19 18 17 16 15 15 14 14 13 13 12 11 9 9 9 10 11 13 15 16 17 18 19 18 18 18 17 15 14 13 11 10 8 7 6 6 6
24 25 25 26 26 25 25 24 23 23 21 20 20 20 19 19 19 18 17 18 18 18 17 17 17 17 16 14 12 10 10 10 9 10 12 12 12 12 12 13 14 17 21 24 24 24 23 22 20 19 18 17 16 16 16 15 14 14 14 14 13 12 14 15 16 17 19 19 19 19 19 18 18 18 16 13 12 12 12 12 10 9 9 8 8
25 25 25 25 25 26 25 24 24 24 23 23 23 23 22 22 22 21 20 20 20 20 19 19 19 18 17 16 16 15 13 13 12 12 13 14 14 14 15 16 19 22 25 25 24 24 23 21 20 19 19 18 17 17 17 16 15 16 17 18 18 18 19 20 20 21 21 20 19 18 18 19 18 17 15 13 12 11 11 11 10 10 11 10 9
24 24 23 24 24 24 24 23 23 23 23 23 23 22 21 21 21 20 19 19 18 17 17 17 17 17 16 15 16 15 15 15 14 13 13 14 16 16 17 19 23 26 27 26 24 22 21 20 19 19 19 18 18 19 19 19 18 19 20 21 22 23 23 22 23 23 21 19 18 18 18 18 18 18 17 17 16 15 12 11 10 9 10 10 10
23 23 22 22 22 22 22 22 21 21 21 20 20 19 18 18 18 17 16 15 14 13 13 14 15 15 15 15 15 14 14 14 14 13 12 14 16 17 18 21 24 26 26 25 23 23 22 21 20 19 19 19 19 20 20 20 21 22 22 22 23 23 22 22 22 21 20 19 19 19 18 18 19 19 20 20 20 18 15 13 12 11 9 8 10
23 22 22 22 21 21 21 21 20 20 20 19 19 18 16 16 16 16 15 15 14 14 14 15 15 16 16 16 15 15 14 13 13 13 14 15 16 16 18 21 23 24 24 24 24 24 23 22 21 21 20 20 20 20 20 20 21 21 22 21 21 21 20 20 20 20 20 19 19 20 19 20 20 20 20 20 20 19 18 16 15 15 14 12 13
23 23 23 23 23 23 22 22 22 22 22 21 21 19 18 17 17 17 16 15 15 15 16 17 18 18 18 17 16 16 15 13 13 13 14 16 16 16 18 20 21 21 22 22 23 24 23 22 22 21 20 20 20 20 19 19 19 19 19 19 19 19 19 19 20 20 20 20 21 21 21 21 21 21 20 20 20 19 19 18 17 16 16 16 16
24 23 23 23 23 22 23 22 22 23 22 22 22 21 20 19 18 18 17 16 16 17 19 20 20 20 20 19 18 17 16 15 14 13 14 15 16 17 18 18 18 19 20 20 21 22 22 21 21 19 19 19 19 19 19 18 19 19 19 19 19 19 19 20 20 19 19 20 21 21 21 22 22 21 20 20 19 18 18 19 18 17 17 18 19
22 21 21 22 21 21 21 21 21 21 21 21 21 21 20 19 19 19 19 18 19 20 21 22 21 21 20 19 18 18 18 18 17 16 16 16 17 18 19 18 18 19 19 19 21 22 22 21 20 18 18 19 19 19 18 19 20 20 20 20 20 19 19 19 19 18 18 19 20 20 20 21 21 20 19 19 18 18 18 19 19 18 19 19 19
19 18 17 17 17 17 18 18 18 18 18 18 19 20 20 19 18 18 18 19 20 20 21 21 20 20 19 19 19 19 19 19 19 19 19 19 19 19 19 19 20 20 19 19 22 23 22 21 20 19 19 20 19 19 18 19 19 19 19 19 19 18 19 18 18 17 18 18 19 20 20 19 19 19 18 18 18 18 18 18 18 18 17 17 18
15 14 13 12 12 12 12 12 13 14 15 15 16 17 18 19 18 17 17 18 19 19 19 18 18 18 18 18 18 19 19 19 19 19 19 19 19 20 21 22 21 19 18 21 24 23 21 21 20 19 19 19 18 18 17 17 17 17 17 17 17 17 17 16 16 16 17 17 18 19 19 19 19 19 18 17 17 16 17 17 17 16 16 16 17
12 11 10 9 9 8 8 7 8 8 9 10 11 12 15 17 17 17 17 17 17 16 16 16 16 17 17 16 16 17 17 16 16 16 16 17 18 19 20 20 19 17 17 20 23 21 20 20 19 18 18 18 17 16 16 16 15 15 16 16 16 15 15 15 15 16 16 16 16 17 18 18 18 18 18 17 16 15 15 16 16 15 15 15 15
11 11 10 10 10 9 8 7 7 6 5 5 5 7 10 12 14 14 15 16 16 15 14 14 14 15 16 15 14 14 14 14 14 13 14 15 16 16 17 19 19 18 18 19 19 19 18 18 18 18 17 16 15 15 15 15 14 14 14 15 15 15 15 15 16 16 15 15 15 16 16 16 16 16 16 16 16 16 15 15 15 15 15 15 16
10 11 11 11 11 11 10 9 8 8 7 6 5 5 6 7 9 10 11 13 14 14 13 13 13 14 14 14 13 12 13 12 12 13 13 13 11 11 14 18 19 19 19 18 17 17 16 16 16 16 15 14 13 13 13 13 13 13 13 14 14 15 15 15 15 15 15 15 14 14 14 14 14 14 13 14 15 15 15 15 15 16 16 17 17
8 8 9 9 9 10 10 11 11 11 10 9 8 6 5 5 6 7 9 9 11 11 11 12 13 13 13 12 11 11 12 12 12 11 11 9 7 7 12 15 16 16 17 16 15 15 15 14 14 13 13 12 12 12 12 13 13 13 13 13 14 15 15 15 15 15 14 14 14 13 13 12 12 12 11 11 12 13 14 15 16 16 17 17 18
8 6 6 6 7 9 11 12 14 14 14 13 10 8 6 5 6 7 7 8 8 9 9 10 11 12 12 11 10 10 10 10 11 9 8 7 6 8 11 12 12 13 15 14 13 13 13 12 12 12 12 12 11 11 12 12 12 12 13 13 14 14 14 14 14 14 14 13 13 12 11 11 10 10 10 9 9 11 12 13 14 15 17 17 18
9 8 8 8 9 11 12 13 14 15 15 15 13 12 10 8 6 7 7 6 6 7 8 9 9 9 10 10 9 9 8 8 8 8 8 7 8 8 10 11 11 12 13 12 11 11 11 12 12 12 12 12 11 11 11 11 11 12 12 13 13 14 15 15 15 14 13 12 11 10 10 10 9 9 9 8 9 9 10 12 14 15 16 17 17
10 12 12 12 13 13 13 14 14 13 13 13 13 12 12 11 9 8 6 5 5 6 8 8 7 7 8 8 7 7 6 6 6 8 8 9 9 9 10 10 11 11 11 11 11 10 11 12 12 12 12 11 11 11 10 10 10 11 11 12 14 15 15 15 14 12 11 9 9 9 10 10 9 9 10 11 10 10 11 13 14 15 15 15 16
10 12 13 13 13 13 13 13 13 12 12 11 11 11 12 11 10 9 7 5 4 5 6 7 7 6 6 6 5 5 4 3 3 7 10 10 10 11 11 10 9 9 10 10 10 11 12 12 12 12 12 11 10 10 10 10 10 10 11 13 15 16 16 14 13 10 8 8 8 9 10 10 9 10 12 13 13 12 13 14 14 14 14 14 14
9 11 13 13 12 12 12 12 12 12 13 13 13 13 13 13 11 10 9 8 7 6 6 6 6 5 6 5 4 3 2 1 3 6 10 12 12 11 11 11 10 9 9 10 10 11 12 12 12 11 10 10 10 10 11 11 11 12 14 15 16 16 15 13 11 8 6 6 8 9 11 11 10 11 12 13 13 13 13 14 13 14 14 14 14
10 12 13 13 12 11 12 12 13 14 14 15 16 15 15 14 14 13 13 12 12 11 10 9 8 7 6 5 4 2 2 2 3 6 11 14 14 13 12 12 12 11 10 10 10 10 11 12 11 10 10 10 10 10 11 11 12 12 14 14 14 14 13 10 8 7 6 6 7 9 11 11 11 11 11 12 12 12 12 13 13 13 14 15 15
13 14 14 14 14 13 13 13 14 15 16 16 16 16 15 15 15 14 14 14 14 13 13 12 10 8 7 5 4 3 3 2 1 5 10 13 14 13 14 14 13 12 11 11 10 10 10 9 9 9 10 10 10 10 10 10 10 11 13 13 13 13 12 9 7 7 7 7 8 10 11 12 12 12 12 12 12 13 13 13 13 14 15 16 16
13 13 13 14 15 15 15 16 16 17 17 17 17 17 16 15 15 14 14 14 14 13 13 12 10 9 7 5 4 3 3 1 2 5 9 11 13 14 15 15 13 12 11 10 10 10 9 7 7 8 9 10 9 9 9 9 10 12 13 14 14 13 12 10 8 8 7 7 8 9 9 10 11 12 12 12 13 13 14 14 14 14 15 16 17
13 13 14 15 16 17 17 18 17 17 17 17 17 17 16 15 15 14 13 13 12 12 11 10 9 8 7 6 5 3 2 0 3 5 8 11 13 15 15 14 12 11 11 11 12 11 9 6 6 7 8 8 8 8 8 9 11 13 14 15 15 13 11 9 8 8 7 7 8 8 8 8 8 9 10 11 11 12 13 13 13 13 14 15 16
14 15 16 17 17 18 18 17 17 17 17 17 17 17 16 15 15 14 12 11 10 9 8 8 7 7 6 6 5 4 3 2 4 7 9 11 13 13 13 13 12 12 12 13 12 10 7 6 6 6 7 7 7 7 8 9 11 13 14 15 14 12 9 6 6 7 7 6 7 7 8 8 9 9 9 9 9 10 11 12 13 14 14 14 14
15 16 17 17 17 17 17 17 17 17 17 17 16 16 15 14 14 13 12 10 9 8 7 7 6 6 6 6 6 6 5 5 6 7 9 10 11 11 11 11 12 12 13 12 10 7 6 5 6 6 6 6 6 7 8 9 11 12 13 14 13 10 6 5 5 5 5 5 5 6 7 8 10 11 10 10 10 10 11 11 12 13 13 13 14
15 16 17 17 16 16 16 16 17 17 16 16 15 14 13 12 12 11 11 10 10 9 8 8 7 6 6 7 7 7 6 6 7 7 7 8 8 8 9 10 11 12 11 9 7 6 6 6 5 5 4 4 5 6 8 10 11 12 12 13 11 7 4 4 4 4 3 3 4 5 6 6 8 9 10 11 11 11 11 11 11 12 12 12 13
15 16 16 17 17 16 16 16 16 15 15 14 14 13 13 12 10 9 9 9 10 10 10 9 9 8 7 8 8 8 8 8 8 8 8 8 9 9 10 10 10 9 7 6 6 6 6 5 4 3 3 3 5 6 8 9 9 10 12 12 8 4 3 3 3 3 3 3 3 5 5 6 7 8 8 10 11 11 11 11 12 12 12 11 12
16 16 16 16 16 15 15 15 15 14 14 14 15 15 14 13 12 11 10 10 10 11 11 11 10 10 9 10 10 10 10 10 9 8 8 8 8 8 8 7 6 5 5 6 7 7 6 5 4 3 2 3 4 5 6 7 8 10 11 9 5 2 3 3 4 3 3 3 3 4 4 6 7 7 8 9 9 10 10 11 11 12 12 12 12
Wind_Direction
204 206 208 210 213 216 218 220 220 222 226 227 228 228 227 228 230 234 240 242 242 242 244 248 253 255 255 256 257 259 260 258 255 252 252 256 261 265 268 267 266 269 275 278 278 281 284 287 288 286 286 288 292 295 295 292 289 286 288 286 278 269 258 245 238 271 293 303 318 325 319 304 297 303 307 267 223 229 238 246 254 257 261 265 267
204 206 209 209 212 216 217 218 219 222 224 225 224 225 228 231 233 236 238 241 242 241 243 249 254 257 258 258 259 261 260 255 252 250 249 251 257 261 264 264 264 265 269 273 276 277 280 287 290 286 283 282 282 284 287 290 293 291 286 281 276 272 263 255 248 258 284 299 314 324 321 309 301 303 306 289 264 260 257 256 258 258 262 268 272
202 206 208 211 212 213 215 217 218 221 223 225 226 226 229 232 234 236 237 240 243 244 247 252 256 259 259 259 258 258 258 255 251 250 251 252 255 259 262 264 265 265 265 267 271 273 275 280 285 283 278 276 278 280 280 282 286 287 283 275 269 267 263 259 255 253 267 288 303 316 322 314 303 301 302 299 293 285 273 263 260 263 272 278 280
200 204 207 210 212 212 213 216 218 221 223 226 229 230 232 233 235 237 239 241 244 246 248 252 255 256 254 253 254 255 257 254 251 251 253 255 256 258 262 264 265 266 266 267 270 273 276 276 279 280 277 274 276 278 276 273 273 275 277 274 268 267 266 261 259 257 260 274 289 301 311 306 297 295 298 298 295 288 282 279 277 277 279 281 282
200 202 205 207 209 210 211 214 218 221 224 226 229 232 234 236 237 239 241 243 244 245 246 248 248 246 245 247 248 253 258 258 256 255 255 256 257 258 261 263 264 264 264 266 270 272 273 274 277 281 280 277 278 279 277 274 273 272 270 269 270 271 268 265 266 263 258 263 278 292 301 300 295 293 295 296 294 288 282 280 280 280 279 279 279
201 202 204 206 207 208 209 211 216 220 224 227 229 231 233 236 238 239 239 241 244 245 245 245 245 245 248 249 247 249 254 257 258 257 253 255 257 259 261 262 263 264 262 263 266 267 267 271 274 275 275 276 277 278 277 275 273 271 268 269 272 273 267 265 268 265 259 260 268 279 290 296 297 295 295 298 298 294 289 284 282 281 281 280 277
202 203 204 206 207 208 208 210 213 217 222 226 229 231 233 234 235 235 236 239 244 245 244 245 248 250 252 252 250 248 248 250 253 252 250 251 254 256 258 260 263 263 261 261 262 261 262 267 270 269 268 271 274 276 277 275 273 273 273 272 272 268 263 263 266 265 262 260 263 271 282 291 294 293 295 299 300 301 303 301 298 295 292 288 279
202 205 205 206 209 210 210 211 213 216 220 225 230 233 234 234 234 234 235 240 244 245 245 247 250 251 252 251 249 247 248 247 246 248 249 249 250 252 255 259 262 260 259 259 258 256 258 263 267 267 265 267 271 276 278 277 275 274 274 274 269 260 258 263 269 269 266 264 267 273 279 285 288 290 295 300 304 311 319 318 311 309 307 298 285
204 205 206 207 210 212 212 212 214 216 219 223 228 233 234 234 234 235 237 240 243 246 247 249 250 249 249 248 246 246 248 247 245 247 251 252 252 253 256 258 258 256 256 256 254 253 256 262 266 266 265 264 266 270 273 273 272 271 272 272 266 258 258 265 269 268 265 264 267 271 274 277 283 289 293 299 307 316 321 318 311 309 310 303 291
204 204 206 209 211 211 210 211 212 213 216 220 227 233 235 233 230 230 231 232 238 243 245 245 244 244 245 244 242 243 246 248 247 248 251 254 256 256 256 257 255 254 255 254 252 253 257 262 265 264 263 262 261 263 266 266 264 265 267 267 266 266 266 267 268 264 261 260 263 267 269 274 282 288 292 298 305 310 313 311 307 308 310 303 291
202 201 205 209 211 211 208 206 208 211 212 216 224 231 234 233 228 224 221 221 231 242 243 241 240 240 241 240 238 241 245 248 248 248 249 252 254 255 255 255 254 253 252 251 252 255 259 262 262 259 260 262 262 260 260 262 263 266 268 265 264 269 270 268 268 268 266 267 271 274 272 275 282 288 291 297 302 304 304 304 304 308 310 304 290
195 189 192 199 208 215 213 209 209 212 211 210 218 226 231 231 229 226 224 227 235 241 240 240 239 238 238 238 238 241 244 246 245 244 246 248 250 251 252 252 252 250 249 251 253 256 260 263 263 265 268 271 275 273 267 263 263 264 268 267 263 265 270 270 271 273 275 278 280 282 280 281 286 292 295 299 299 298 297 297 300 303 302 296 287
183 176 180 189 198 210 218 218 214 211 208 203 205 216 223 224 223 223 226 232 236 236 235 238 241 241 241 242 243 244 245 245 244 244 246 248 246 245 248 251 251 250 251 254 255 254 256 259 259 261 262 264 278 284 279 274 271 267 267 269 269 271 276 275 276 277 278 277 277 281 285 289 292 294 295 293 293 293 294 295 298 300 296 291 288
177 175 180 188 193 198 211 226 228 220 209 199 199 211 217 212 204 203 212 220 226 231 234 237 242 245 247 247 247 248 246 244 243 243 245 246 245 243 245 248 250 252 254 255 254 253 255 256 253 252 257 263 272 275 274 277 282 277 265 260 262 269 278 280 278 278 278 280 280 282 288 292 293 292 290 290 294 299 299 298 298 298 294 290 289
173 179 184 189 194 195 199 213 225 227 219 215 221 228 228 224 209 201 209 219 225 235 240 240 241 245 249 249 249 248 246 244 244 244 244 245 245 243 242 244 247 252 254 253 252 255 259 259 254 255 271 281 268 263 268 277 283 276 267 265 268 276 288 293 285 280 281 286 290 293 296 298 298 297 296 296 298 299 298 297 294 293 293 292 290
154 164 173 182 190 190 188 192 203 213 216 217 227 235 240 241 228 213 217 228 230 235 239 240 242 247 249 249 247 245 245 246 247 248 247 247 245 244 245 245 247 249 250 249 250 253 256 256 253 256 276 287 287 287 284 284 288 284 280 288 298 299 298 291 282 283 286 286 290 292 293 296 297 297 298 300 302 302 301 296 292 290 290 289 288
152 154 161 173 179 173 167 169 170 169 162 168 193 216 222 222 217 211 217 222 221 227 237 239 242 249 250 246 243 243 245 249 250 250 249 247 247 248 246 245 247 248 245 247 248 246 248 251 244 232 250 288 317 322 308 296 314 310 296 298 305 305 298 281 270 277 292 297 299 297 296 298 298 295 296 299 303 305 299 292 293 293 285 277 280
151 156 163 171 165 151 147 148 143 138 137 141 152 169 181 193 203 210 218 222 220 226 238 242 238 239 240 239 240 243 246 249 252 252 250 250 250 250 247 249 250 236 211 204 211 187 171 171 160 131 108 81 355 338 321 310 328 339 328 321 321 322 323 320 316 311 300 297 297 296 297 300 300 297 295 294 296 298 291 287 291 291 278 267 273
126 134 138 141 141 136 135 135 129 125 124 125 134 147 160 182 201 211 219 223 222 222 228 229 217 212 212 217 227 237 241 247 253 255 255 254 252 251 250 245 232 209 186 152 133 135 129 116 105 94 77 57 26 354 329 319 326 334 331 331 336 340 341 339 335 329 318 310 309 309 311 316 317 311 302 296 293 290 286 287 289 284 277 273 274
112 117 118 120 123 123 123 120 112 106 104 105 112 118 126 150 171 189 199 199 198 197 190 170 158 155 168 185 198 215 226 238 251 255 255 251 248 249 241 223 213 205 188 161 141 130 121 108 95 83 75 68 54 42 33 25 27 25 16 18 15 2 355 353 351 347 344 341 336 330 328 330 330 325 312 303 298 289 283 286 287 285 283 279 274
105 109 112 114 115 113 111 110 104 99 99 101 101 97 95 100 103 108 125 139 142 138 131 126 121 115 122 146 156 160 168 185 231 251 257 248 240 240 230 215 206 189 165 151 136 116 104 96 90 85 81 77 71 64 59 56 56 56 51 46 39 25 17 17 17 14 9 5 3 358 355 353 352 352 346 333 320 302 287 285 285 285 286 281 278
101 104 104 102 102 104 106 107 107 104 103 102 99 96 94 94 97 101 107 110 109 105 103 105 104 100 102 111 117 115 113 117 140 137 113 223 218 212 185 178 180 171 153 134 116 106 101 94 89 88 84 80 77 72 67 61 58 57 54 49 45 46 50 52 53 51 46 41 37 32 27 24 21 20 20 17 12 1 338 326 320 308 301 302 311
95 95 94 92 93 97 100 105 108 108 106 104 102 101 99 97 96 97 101 103 101 97 96 96 97 95 96 99 105 108 107 106 104 95 88 92 108 109 109 129 151 151 133 117 109 107 103 98 94 92 88 84 82 79 74 69 64 62 60 58 57 63 70 72 69 63 55 47 42 37 32 30 28 27 25 21 19 19 15 11 7 359 353 359 8
95 95 95 95 96 98 100 103 105 106 105 105 102 99 97 94 92 92 94 95 95 93 92 94 93 88 84 85 88 93 96 96 92 86 85 89 95 96 96 105 117 119 114 111 111 108 104 100 97 94 91 88 86 82 79 74 70 69 67 65 64 67 70 70 67 63 57 50 44 41 38 35 33 31 29 25 23 24 25 26 26 28 32 34 36
97 97 95 95 98 100 101 102 102 102 102 101 98 96 94 93 90 89 90 91 91 90 90 91 90 87 83 83 84 86 88 87 86 83 84 87 92 95 98 103 109 112 111 109 108 105 102 101 98 94 91 89 86 83 79 75 73 74 73 70 66 64 64 64 62 60 58 53 49 46 45 44 41 37 34 31 30 30 31 31 33 35 36 34 35
96 96 95 95 97 99 100 100 100 101 100 99 97 96 96 95 93 91 90 89 89 89 88 88 88 88 89 89 89 90 88 85 83 83 85 89 93 98 105 111 114 113 109 106 103 102 104 104 100 93 88 88 87 86 82 79 78 76 74 73 68 64 63 63 61 58 54 51 48 45 45 47 49 47 43 40 37 35 30 25 24 27 29 32 38
96 96 96 97 97 98 98 97 98 100 99 99 98 96 94 95 95 95 96 95 94 93 92 92 91 92 92 93 93 93 91 89 91 92 94 98 100 102 107 111 112 110 107 104 103 103 105 105 99 92 91 91 90 87 84 80 76 74 72 72 71 69 67 66 65 61 55 50 48 44 43 47 51 49 46 43 41 39 36 34 32 29 25 29 36
95 95 96 98 98 98 98 97 98 98 97 97 97 95 93 93 94 95 97 99 99 98 96 96 96 95 94 92 91 89 88 90 96 99 102 105 105 107 110 112 111 109 108 108 108 106 106 105 101 96 95 93 89 85 82 78 76 74 72 71 71 70 69 68 66 62 58 54 51 47 45 46 48 48 47 45 42 40 41 42 42 38 36 38 38
95 94 95 96 96 97 98 98 98 97 97 96 95 93 91 92 92 92 93 94 96 98 99 99 98 95 91 87 84 83 84 86 94 104 111 113 112 112 114 116 114 111 110 112 114 112 109 105 101 98 96 92 88 84 81 78 76 74 72 70 69 66 65 63 62 59 57 54 52 50 48 47 47 48 48 47 45 43 44 44 44 41 41 41 39
96 96 96 96 96 98 98 98 98 98 98 97 96 94 92 92 92 93 93 93 95 99 102 101 97 92 88 85 83 83 85 88 96 105 113 118 119 118 119 120 119 116 116 119 118 114 110 105 101 100 97 93 88 84 80 78 76 73 72 70 68 66 65 64 62 59 56 54 52 50 49 48 48 48 48 47 46 46 45 45 46 47 46 44 41
100 99 99 97 97 98 98 99 100 100 99 99 99 99 97 94 92 92 94 96 98 102 102 100 94 89 86 86 87 91 93 95 98 101 105 111 117 119 123 127 126 124 127 126 117 111 108 105 101 98 96 91 87 83 80 78 78 76 74 71 69 66 64 61 58 54 51 49 48 47 46 46 45 44 44 44 44 44 45 46 49 51 52 49 44
103 103 103 102 101 100 99 100 101 102 102 104 104 104 102 99 95 93 96 99 103 104 103 99 94 89 86 88 92 96 99 100 101 103 105 108 112 116 120 124 126 130 134 126 112 106 105 104 99 96 94 91 88 84 81 80 79 77 74 72 69 64 61 58 53 48 46 44 43 42 41 41 40 39 38 38 38 40 42 43 46 49 52 52 49
104 104 105 107 108 107 105 105 105 104 104 105 107 108 108 107 104 101 101 103 106 108 105 101 95 90 88 91 95 99 102 104 105 107 109 111 114 117 120 122 125 129 129 119 110 106 105 103 101 99 98 95 92 90 87 85 82 78 76 74 70 64 60 55 49 47 47 45 43 42 42 40 38 36 33 32 33 36 38 39 41 43 47 50 50
104 103 102 103 106 107 106 106 108 109 108 106 106 107 109 110 112 111 110 109 110 111 110 106 100 95 92 94 99 103 105 107 108 110 113 114 117 119 120 119 119 118 116 113 112 111 110 108 107 107 106 104 102 99 96 91 87 84 80 77 73 68 62 55 52 53 52 47 45 44 43 40 38 35 33 31 32 34 36 39 41 43 46 48 48
101 100 99 97 94 93 90 87 88 98 109 116 117 115 113 113 114 114 116 117 117 118 119 117 111 104 99 99 105 111 113 113 113 115 116 117 118 119 117 115 112 111 111 113 115 114 113 113 114 114 112 110 106 101 97 92 88 83 78 73 69 64 59 56 56 54 50 47 45 43 39 37 37 36 33 33 35 37 40 44 46 47 50 51 50
97 94 94 94 93 90 86 87 91 96 101 109 123 141 139 127 117 115 118 122 123 125 127 128 125 117 108 103 108 119 126 126 123 121 121 121 118 112 111 113 115 115 116 116 116 116 114 114 115 116 114 111 106 99 94 90 85 80 75 69 64 59 55 53 50 45 42 40 38 35 31 30 31 31 31 35 41 45 47 50 52 52 53 53 52
102 96 92 94 97 94 90 94 103 108 109 109 114 134 158 164 149 133 125 124 126 129 133 136 137 133 122 110 108 119 132 138 137 132 130 130 120 103 107 115 118 119 120 120 119 116 114 113 112 112 109 108 105 100 95 91 86 80 73 65 60 55 50 44 38 32 29 28 26 24 23 22 22 23 26 33 44 51 52 53 56 56 55 53 51
105 107 103 100 102 101 99 101 105 107 109 109 109 116 135 162 172 163 148 137 132 133 137 143 147 145 135 121 111 114 127 141 147 147 145 144 130 115 116 120 121 122 125 125 122 118 116 115 112 108 105 104 103 99 95 89 81 74 66 59 53 48 40 33 28 23 20 18 17 16 16 17 20 22 23 33 48 57 58 58 59 60 58 54 52
101 108 115 116 115 112 110 108 105 103 102 101 98 96 99 109 132 153 162 161 152 146 149 151 152 151 144 133 122 116 122 139 153 157 157 156 148 137 132 132 130 131 133 133 129 125 123 122 119 113 108 107 104 100 94 87 77 68 57 49 43 37 31 27 24 22 20 18 16 17 20 23 28 30 34 44 54 60 64 66 65 65 62 59 56
104 109 112 111 110 109 108 107 105 103 100 97 93 92 94 97 103 115 133 155 163 165 170 168 158 153 152 144 130 122 125 141 164 176 178 173 164 157 152 146 143 143 144 142 139 136 132 128 126 120 114 110 107 103 96 86 75 66 55 47 40 34 29 24 21 20 22 23 26 32 36 39 45 51 56 61 65 70 74 74 71 69 66 62 59
115 117 114 107 104 104 104 102 102 101 100 99 96 95 99 103 106 111 118 123 130 154 179 185 177 164 159 149 132 124 126 138 191 205 201 192 181 173 167 162 159 158 157 153 148 144 138 133 128 122 116 113 111 105 98 87 78 70 60 50 41 32 25 22 21 23 26 30 39 46 48 49 58 68 70 71 74 77 77 74 69 67 65 62 60
126 126 121 113 108 106 103 103 104 104 103 104 103 103 106 109 111 112 115 113 108 113 138 159 164 164 160 149 135 137 154 195 240 227 213 203 194 184 177 173 172 170 167 162 156 151 145 137 129 121 116 115 112 105 95 84 75 65 53 43 34 27 22 19 22 30 40 47 53 56 57 59 67 75 77 75 74 74 72 68 64 63 62 60 58
135 132 124 115 109 106 107 109 109 107 107 107 108 109 110 109 106 104 103 103 102 101 104 110 120 131 137 134 132 145 163 183 228 229 217 208 200 190 182 178 176 173 169 165 161 158 150 139 129 123 121 118 111 98 85 73 63 53 44 36 32 30 26 23 30 47 59 62 64 65 66 68 71 74 74 72 70 68 66 64 62 61 61 61 59
138 132 124 117 112 110 112 111 108 107 108 109 108 108 108 107 105 101 97 95 95 95 97 99 105 113 116 117 119 114 102 92 243 232 219 211 203 192 184 180 178 176 171 166 163 161 153 139 130 129 127 118 104 90 80 69 58 48 42 38 37 37 35 39 53 65 67 70 73 74 73 73 71 70 70 69 68 66 64 63 64 65 63 61 58
138 129 122 121 119 116 115 113 109 109 109 106 103 102 101 100 98 96 94 92 92 92 93 93 95 99 99 95 91 86 73 45 253 228 216 207 198 187 182 180 180 178 172 166 165 164 156 142 136 135 127 115 101 87 76 65 54 47 43 40 38 39 43 54 67 72 74 78 76 70 67 69 69 66 64 66 67 64 61 62 66 66 62 58 54
138 131 126 126 124 120 118 115 112 110 108 104 102 99 96 95 94 92 90 89 87 85 85 84 81 82 83 80 78 76 66 223 214 201 193 188 182 178 178 179 179 177 172 167 165 162 153 142 141 136 125 114 99 83 71 59 49 43 41 38 37 38 46 63 78 82 82 79 69 57 55 64 68 61 54 55 61 59 55 58 63 64 60 54 48
133 130 130 130 126 122 120 117 114 111 108 106 103 100 96 95 94 90 88 88 85 81 79 77 73 72 72 72 77 84 92 134 164 165 167 170 171 173 177 180 180 176 170 163 159 153 143 138 138 129 116 105 89 73 62 53 45 40 37 35 33 35 45 70 90 88 78 69 62 59 58 58 57 52 45 49 60 63 59 59 61 57 52 47 43
131 129 131 131 129 125 122 118 115 113 110 106 103 100 96 93 90 87 86 86 85 85 86 83 80 79 77 75 79 88 99 118 136 143 149 156 161 166 173 178 179 173 164 156 151 146 140 138 132 118 104 92 77 66 58 50 43 37 34 30 30 34 50 80 95 87 76 67 63 60 53 46 47 51 55 60 67 68 65 63 59 52 48 46 43
134 132 132 132 130 127 124 120 116 114 112 109 106 104 101 97 94 92 90 89 88 90 91 89 85 83 82 83 87 93 99 108 117 125 134 143 150 157 165 169 168 164 157 153 152 151 145 139 128 112 98 88 74 63 53 44 38 34 29 28 29 39 67 96 99 87 78 69 58 53 52 50 50 55 63 69 68 64 61 61 57 52 49 46 42
137 135 134 133 131 128 125 123 119 117 116 115 112 108 103 98 93 90 88 87 86 87 88 88 87 85 83 85 87 89 91 94 98 105 115 125 135 145 153 156 156 155 156 160 162 156 148 143 138 124 109 93 71 55 44 37 34 31 27 24 27 45 89 103 96 86 81 71 58 57 60 56 51 54 63 66 59 53 52 52 48 44 43 41 37
137 135 133 133 132 130 129 126 124 123 121 117 111 105 99 94 91 90 87 84 85 87 87 88 89 89 88 88 87 86 86 88 92 97 106 116 125 136 143 146 147 151 159 163 164 163 163 163 161 154 132 93 59 43 38 35 32 29 25 22 24 64 105 96 79 70 65 59 58 65 63 52 48 56 65 63 53 46 44 39 33 31 35 38 36